Location: Newark
(23.1300°N, 73.6109°E)
Time: 17:16:32
(UTC+00:00)

AO-7 - Pass Details

Date: 10 July 2020
Orbit: 1440 x 1458 km, 101.8° (Epoch: 05 August)

Event Time Altitude Azimuth Distance (km) Brightness Sun altitude
Rises 22:53:44 0° 14° (NNE) 4,562 ? -19.5°
Reaches altitude 10° 22:56:31 10° 14° (NNE) 3,582 ? -18.9°
Maximum altitude 23:04:54 83° 288° (WNW) 1,470 ? -17.4°
Enters shadow 23:12:52 12° 201° (SSW) 3,439 ? -15.8°
